Weather History for Cody, WY

Change the Weather History Date:

Sunday, March 31, 2013

  Actual Average Record
Temperature  
Mean Temperature 46 °F -  
Max Temperature 57 °F 51 °F 73 °F (2004)
Min Temperature 35 °F 27 °F -3 °F (1936)
Degree Days  
Heating Degree Days 19    
Moisture  
Dew Point 24 °F    
Average Humidity 45    
Maximum Humidity 70    
Minimum Humidity 29    
Precipitation  
Precipitation 0.00 in - - ()
Sea Level Pressure  
Sea Level Pressure 30.04 in    
Wind  
Wind Speed 9 mph (North)    
Max Wind Speed 18 mph    
Max Gust Speed 25 mph    
Visibility 10 miles    
Events      
Averages and records for this station are not official NWS values.
T = Trace of Precipitation, MM = Missing Value Source: NWS Daily Summary

Daily Weather History Graph

Daily Weather History Graph

Search for Another Location

Airport:

Trip Planner

Search our weather history database for the weather conditions in past years. The results will help you decide how hot, cold, wet, or windy it might be!

Date:

Astronomy

Mar. 31, 2013 Rise Set
Actual Time 6:58 AM MDT 7:42 PM MDT
Civil Twilight 6:28 AM MDT 8:12 PM MDT
Nautical Twilight 5:54 AM MDT 8:47 PM MDT
Astronomical Twilight 5:17 AM MDT 9:23 PM MDT
Moon 12:01 AM MDT (3/31) 9:38 AM MDT (3/31)
Length of Visible Light 13h 43m
Length of Day
12h 44m
Waning Gibbous, 77% of the Moon is Illuminated
Mar 31
Waning Gibbous
Apr 2
Last Quarter
Apr 10
New
Apr 18
First Quarter
Apr 25
Full

Hourly Weather History & Observations

Time (MDT) Temp. Windchill Dew Point Humidity Pressure Visibility Wind Dir Wind Speed Gust Speed Precip Events Conditions
12:15 AM 37.4 °F 30.3 °F 26.6 °F 65% 30.09 in 10.0 mi South 10.4 mph - N/A   Clear
12:35 AM 39.2 °F 32.5 °F 26.6 °F 61% 30.08 in 10.0 mi SSW 10.4 mph - N/A   Clear
1:15 AM 35.6 °F 26.6 °F 26.6 °F 70% 30.07 in 10.0 mi South 13.8 mph - N/A   Clear
1:35 AM 37.4 °F - 26.6 °F 65% 30.07 in 10.0 mi Calm Calm - N/A   Clear
2:15 AM 37.4 °F 30.3 °F 24.8 °F 60% 30.05 in 10.0 mi South 10.4 mph - N/A   Clear
2:35 AM 37.4 °F 30.3 °F 24.8 °F 60% 30.04 in 10.0 mi South 10.4 mph - N/A   Clear
2:55 AM 35.6 °F 30.7 °F 24.8 °F 65% 30.03 in 10.0 mi WSW 5.8 mph - N/A   Clear
3:15 AM 37.4 °F 32.1 °F 24.8 °F 60% 30.02 in 10.0 mi WSW 6.9 mph - N/A   Clear
3:35 AM 39.2 °F 31.6 °F 24.8 °F 56% 30.01 in 10.0 mi SSW 12.7 mph - N/A   Clear
4:15 AM 41.0 °F 35.8 °F 24.8 °F 53% 30.00 in 10.0 mi West 8.1 mph - N/A   Clear
4:55 AM 42.8 °F 39.3 °F 21.2 °F 42% 29.99 in 10.0 mi West 5.8 mph - N/A   Clear
5:15 AM 42.8 °F 39.3 °F 21.2 °F 42% 29.99 in 10.0 mi NW 5.8 mph - N/A   Clear
5:35 AM 39.2 °F - 21.2 °F 49% 29.99 in 10.0 mi Calm Calm - N/A   Clear
5:55 AM 39.2 °F 33.0 °F 19.4 °F 45% 29.99 in 10.0 mi WNW 9.2 mph - N/A   Clear
6:15 AM 35.6 °F 30.7 °F 21.2 °F 56% 29.99 in 10.0 mi NW 5.8 mph - N/A   Clear
6:35 AM 39.2 °F 35.0 °F 19.4 °F 45% 29.99 in 10.0 mi West 5.8 mph - N/A   Clear
6:55 AM 37.4 °F 34.9 °F 19.4 °F 48% 29.99 in 10.0 mi WNW 3.5 mph - N/A   Clear
7:15 AM 35.6 °F - 21.2 °F 56% 30.00 in 10.0 mi Calm Calm - N/A   Clear
7:35 AM 39.2 °F - 21.2 °F 49% 30.00 in 10.0 mi Calm Calm - N/A   Clear
7:55 AM 37.4 °F 33.8 °F 23.0 °F 56% 30.01 in 10.0 mi NNW 4.6 mph - N/A   Clear
8:15 AM 39.2 °F 37.0 °F 24.8 °F 56% 30.02 in 10.0 mi NNW 3.5 mph - N/A   Clear
8:35 AM 41.0 °F - 24.8 °F 53% 30.02 in 10.0 mi Calm Calm - N/A   Clear
8:55 AM 44.6 °F 43.1 °F 24.8 °F 46% 30.03 in 10.0 mi ENE 3.5 mph - N/A   Clear
9:15 AM 46.4 °F 42.4 °F 26.6 °F 46% 30.03 in 10.0 mi NE 8.1 mph - N/A   Clear
9:35 AM 46.4 °F 41.9 °F 26.6 °F 46% 30.03 in 10.0 mi NE 9.2 mph - N/A   Clear
9:56 AM 44.6 °F 39.2 °F 26.6 °F 49% 30.03 in 10.0 mi NE 10.4 mph - N/A   Clear
10:15 AM 46.4 °F 39.8 °F 28.4 °F 50% 30.03 in 10.0 mi NNE 16.1 mph - N/A   Clear
10:35 AM 50.0 °F - 26.6 °F 40% 30.03 in 10.0 mi NNE 17.3 mph 21.9 mph N/A   Clear
10:56 AM 51.8 °F - 24.8 °F 35% 30.04 in 10.0 mi NNE 16.1 mph - N/A   Clear
11:15 AM 51.8 °F - 26.6 °F 38% 30.04 in 10.0 mi North 18.4 mph - N/A   Clear
11:35 AM 51.8 °F - 24.8 °F 35% 30.04 in 10.0 mi North 13.8 mph 20.7 mph N/A   Clear
11:55 AM 53.6 °F - 26.6 °F 35% 30.05 in 10.0 mi North 12.7 mph 23.0 mph N/A   Clear
12:15 PM 53.6 °F - 24.8 °F 33% 30.05 in 10.0 mi NNE 16.1 mph - N/A   Clear
12:35 PM 53.6 °F - 24.8 °F 33% 30.06 in 10.0 mi NNE 15.0 mph 23.0 mph N/A   Clear
12:55 PM 53.6 °F - 24.8 °F 33% 30.07 in 10.0 mi North 15.0 mph 21.9 mph N/A   Clear
1:15 PM 55.4 °F - 24.8 °F 31% 30.06 in 10.0 mi North 13.8 mph 19.6 mph N/A   Clear
1:35 PM 55.4 °F - 24.8 °F 31% 30.06 in 10.0 mi North 13.8 mph 20.7 mph N/A   Clear
1:55 PM 57.2 °F - 24.8 °F 29% 30.05 in 10.0 mi North 15.0 mph 20.7 mph N/A   Clear
2:15 PM 57.2 °F - 24.8 °F 29% 30.05 in 10.0 mi NE 18.4 mph 23.0 mph N/A   Clear
2:35 PM 55.4 °F - 24.8 °F 31% 30.04 in 10.0 mi NE 15.0 mph 19.6 mph N/A   Clear
2:55 PM 57.2 °F - 24.8 °F 29% 30.04 in 10.0 mi NNE 9.2 mph - N/A   Clear
3:15 PM 57.2 °F - 24.8 °F 29% 30.04 in 10.0 mi North 9.2 mph 18.4 mph N/A   Clear
3:35 PM 57.2 °F - 24.8 °F 29% 30.03 in 10.0 mi North 13.8 mph 17.3 mph N/A   Clear
3:55 PM 57.2 °F - 24.8 °F 29% 30.03 in 10.0 mi North 15.0 mph 19.6 mph N/A   Clear
4:15 PM 57.2 °F - 24.8 °F 29% 30.03 in 10.0 mi North 13.8 mph - N/A   Partly Cloudy
4:35 PM 57.2 °F - 24.8 °F 29% 30.03 in 10.0 mi North 18.4 mph 25.3 mph N/A   Clear
5:15 PM 55.4 °F - 24.8 °F 31% 30.03 in 10.0 mi North 15.0 mph 21.9 mph N/A   Clear
5:35 PM 55.4 °F - 24.8 °F 31% 30.03 in 10.0 mi North 16.1 mph - N/A   Clear
6:15 PM 53.6 °F - 24.8 °F 33% 30.04 in 10.0 mi NNE 15.0 mph - N/A   Clear
6:35 PM 53.6 °F - 23.0 °F 30% 30.04 in 10.0 mi North 16.1 mph - N/A   Clear
7:15 PM 50.0 °F - 24.8 °F 37% 30.05 in 10.0 mi North 16.1 mph - N/A   Clear
7:35 PM 48.2 °F - 24.8 °F 40% 30.06 in 10.0 mi North 12.7 mph - N/A   Clear
7:55 PM 46.4 °F 42.9 °F 24.8 °F 43% 30.07 in 10.0 mi North 6.9 mph - N/A   Clear
8:15 PM 44.6 °F 42.2 °F 24.8 °F 46% 30.07 in 10.0 mi NNE 4.6 mph - N/A   Clear
8:35 PM 42.8 °F 39.3 °F 24.8 °F 49% 30.07 in 10.0 mi NNW 5.8 mph - N/A   Clear
9:15 PM 42.8 °F 39.3 °F 24.8 °F 49% 30.09 in 10.0 mi WNW 5.8 mph - N/A   Clear
9:35 PM 41.0 °F 39.0 °F 24.8 °F 53% 30.09 in 10.0 mi NNE 3.5 mph - N/A   Clear
9:55 PM 41.0 °F 37.1 °F 24.8 °F 53% 30.10 in 10.0 mi North 5.8 mph - N/A   Clear
10:15 PM 39.2 °F 35.9 °F 23.0 °F 52% 30.10 in 10.0 mi NNW 4.6 mph - N/A   Clear
10:35 PM 39.2 °F - 23.0 °F 52% 30.10 in 10.0 mi Calm Calm - N/A   Clear
11:15 PM 37.4 °F - 21.2 °F 52% 30.09 in 10.0 mi Calm Calm - N/A   Clear
11:35 PM 37.4 °F 33.8 °F 21.2 °F 52% 30.09 in 10.0 mi North 4.6 mph - N/A   Clear
11:55 PM 37.4 °F - 21.2 °F 52% 30.09 in 10.0 mi Calm Calm - N/A   Clear